This is the latest recevied weather packets stored in our database for station/object SP1BMW-13. If no packets are shown the sender has not sent any weather packets the latest 10 day(s).
| Time | Temp. | Humidity | Pressure | Rain* | Wind** | Luminosity | Snow |
|---|---|---|---|---|---|---|---|
| 1787946018 | 21.11° C | 78% | 1007.4 hPa | 0 mm | 0.45 m/s, 131° | 0 W/m² | - |
| 1787945958 | 21.11° C | 78% | 1007.3 hPa | 0 mm | 0 m/s | 0 W/m² | - |
| 1787945898 | 21.11° C | 78% | 1007.4 hPa | 0 mm | 0 m/s | 0 W/m² | - |
| 1787945839 | 21.11° C | 78% | 1007.2 hPa | 0 mm | 0.45 m/s, 56° | 0 W/m² | - |
| 1787945778 | 21.11° C | 78% | 1007.2 hPa | 0 mm | 0.45 m/s, 54° | 0 W/m² | - |
| 1787945718 | 21.11° C | 78% | 1007.2 hPa | 0 mm | 0.45 m/s, 62° | 0 W/m² | - |
| 1787945658 | 21.11° C | 78% | 1007.3 hPa | 0 mm | 0.89 m/s, 57° | 0 W/m² | - |
| 1787945598 | 21.11° C | 78% | 1007 hPa | 0 mm | 1.34 m/s, 47° | 0 W/m² | - |
| 1787945538 | 21.11° C | 78% | 1007.2 hPa | 0 mm | 0.45 m/s, 50° | 0 W/m² | - |
| 1787945478 | 21.11° C | 78% | 1007 hPa | 0 mm | 0.45 m/s, 69° | 0 W/m² | - |
| 1787945418 | 21.11° C | 78% | 1007.2 hPa | 0 mm | 0.89 m/s, 102° | 0 W/m² | - |
| 1787945358 | 21.11° C | 78% | 1007.4 hPa | 0 mm | 0.45 m/s, 53° | 0 W/m² | - |
| 1787945299 | 21.11° C | 78% | 1007.4 hPa | 0 mm | 0.45 m/s, 39° | 0 W/m² | - |
| 1787945239 | 21.11° C | 78% | 1007.4 hPa | 0 mm | 0.89 m/s, 46° | 0 W/m² | - |
| 1787945178 | 21.11° C | 78% | 1007.6 hPa | 0 mm | 0 m/s | 0 W/m² | - |
| 1787945118 | 21.11° C | 78% | 1007.4 hPa | 0 mm | 0.45 m/s, 42° | 0 W/m² | - |
| 1787945058 | 21.11° C | 78% | 1007.4 hPa | 0 mm | 0.45 m/s, 42° | 0 W/m² | - |
| 1787944998 | 21.11° C | 78% | 1007.4 hPa | 0 mm | 0.89 m/s, 43° | 0 W/m² | - |
| 1787944938 | 21.11° C | 78% | 1007.4 hPa | 0 mm | 0.89 m/s, 37° | 0 W/m² | - |
| 1787944878 | 21.11° C | 78% | 1007.6 hPa | 0 mm | 0.45 m/s, 59° | 0 W/m² | - |
| 1787944818 | 21.11° C | 78% | 1007.5 hPa | 0 mm | 0.45 m/s, 28° | 0 W/m² | - |
| 1787944758 | 21.11° C | 78% | 1007.5 hPa | 0 mm | 0 m/s | 0 W/m² | - |
| 1787944698 | 21.11° C | 78% | 1007.5 hPa | 0 mm | 0.45 m/s, 62° | 0 W/m² | - |
| 1787944638 | 21.11° C | 78% | 1007.7 hPa | 0 mm | 0 m/s | 0 W/m² | - |
| 1787944578 | 21.11° C | 78% | 1007.4 hPa | 0 mm | 1.34 m/s, 51° | 0 W/m² | - |
* Rain latest hour (hover to see other rain measurements)
** Current wind speed in m/s (hover to see current wind gust speed)